Location: Unspecified
(0.0000°N, 0.0000°E)
Time: 17:48:24
(UTC+00:00)

A-11 Canister half - Pass Details

Date: 30 May 2026
Orbit: 1515 x 1685 km, 47.2° (Epoch: 9 June)

Event Time Altitude Azimuth Distance (km) Brightness Sun altitude
Rises 15:26:05 0° 239° (WSW) 4,934 12.0 34.7°
Reaches altitude 10° 15:29:38 10° 248° (WSW) 3,936 11.8 34.0°
Maximum altitude 15:38:34 36° 310° (NW) 2,404 12.3 32.0°
Drops below altitude 10° 15:47:20 10° 14° (NNE) 3,836 11.3 30.0°
Sets 15:50:47 0° 22° (NNE) 4,796 11.6 29.2°
